Terug naar catalogus

CZ-6A DEB

ActiefPO
NORAD 61144·DEBRIS·🇨🇳 China

Gelanceerd Aug 6, 2024 vanaf Taiyuan Satellite Launch Center

Loading…

Volgende Passages (komende 24 uur)

TLE

VersSource: Space-Track

Epoch: Sep 14, 2026, 10:11 UTC

1 61144U 24140QN  26257.42443934  .00000428  00000-0  11011-3 0  9993
2 61144  88.9474 256.2316 0089129   5.3936 354.8206 14.45919837108826

Volg CZ-6A DEB in realtime met AllMySat

Download on the App Store